Regional Weather Roundup
Issued by NWS

Home | Current Version | Previous Version | Text Only | Print | Product List | Glossary Off
Versions: 1 2 3 4 5 6 7 8 9 10 11 12 13 14 15 16 17 18 19 20 21 22 23 24 25 26 27 28 29 30 31 32 33 34 35 36 37 38 39 40 41 42 43 44 45 46 47 48 49 50

000
ASUS43 KOAX 281502
RWRNE

WEATHER ROUNDUP FOR NEBRASKA
NATIONAL WEATHER SERVICE OMAHA NE
1000 AM CDT TUE JUL 28 2015

NOTES: SATELLITE DATA IS BEING USED TO AUGMENT CLOUD COVER ABOVE
       12000 FEET.
       "FAIR" INDICATES FEW OR NO CLOUDS BELOW 12,000 FEET WITH NO
       SIGNIFICANT WEATHER AND/OR OBSTRUCTIONS TO VISIBILITY.

  * THESE STATIONS DO NOT REPORT WEATHER SUCH AS RAIN...SNOW OR FOG.

NEZ001>004-019>022-054>056-281600-
NEBRASKA PANHANDLE

CITY           SKY/WX    TMP DP  RH WIND       PRES   REMARKS
SCOTTSBLUFF    SUNNY     65  50  58 NW6       30.09R
ALLIANCE       SUNNY     65  46  50 NW10      30.07S
CHADRON        SUNNY     63  47  55 NW13      30.07R
KIMBALL        SUNNY     67  31  26 NW22G31   30.10S
SIDNEY         SUNNY     70  40  33 N18G24    30.11R
$$

NEZ057>060-069>072-079>082-281600-
SOUTHWEST NEBRASKA

CITY           SKY/WX    TMP DP  RH WIND       PRES   REMARKS
NORTH PLATTE   SUNNY     74  53  48 N12       29.99R
IMPERIAL       LGT RAIN  76  44  32 N18G28    30.02R
MCCOOK         SUNNY     75  50  41 N22G29    29.96R
$$

NEZ005>010-023>029-035>040-094-281600-
NORTH CENTRAL NEBRASKA

CITY           SKY/WX    TMP DP  RH WIND       PRES   REMARKS
VALENTINE      SUNNY     71  45  39 NW22G30   29.98R
AINSWORTH      SUNNY     70  49  46 N20G28    29.99R
BROKEN BOW     MOSUNNY   73  52  47 N16G24    29.96R
O`NEILL        SUNNY     70  61  73 NW18G24   29.95R
ORD            PTSUNNY   71  57  61 N21G28    29.92R
$$

NEZ041-046>049-061>064-073>077-083>087-281600-
SOUTH CENTRAL NEBRASKA

CITY           SKY/WX    TMP DP  RH WIND       PRES   REMARKS
GRAND ISLAND   CLOUDY    79  72  79 NW14      29.86R
AURORA         MOSUNNY   82  74  76 SW6       29.83R
HASTINGS       MOSUNNY   83  72  69 W6        29.85R
KEARNEY *      PTSUNNY   73  61  64 N25G32    29.90R
$$

NEZ011>018-030>034-042>045-281600-
NORTHEAST NEBRASKA

CITY           SKY/WX    TMP DP  RH WIND       PRES   REMARKS
NORFOLK        CLOUDY    77  73  87 CALM      29.85R
BLAIR          CLOUDY    71  68  90 E8G17     29.86F
COLUMBUS *     PTSUNNY   79  70  73 SE7       29.83R
FREMONT        CLOUDY    74  71  89 E16G22    29.85F
TEKAMAH        TSTM      72  70  93 S10       29.83F
$$

NEZ050>053-065>068-078-088>093-281600-
SOUTHEAST NEBRASKA

CITY           SKY/WX    TMP DP  RH WIND       PRES   REMARKS
LINCOLN        MOSUNNY   82  75  79 E13       29.85S
OMAHA EPPLEY   CLOUDY    73  70  90 E20       29.86F THUNDER
FALLS CITY     MOSUNNY   85  74  69 S10       29.86R HX  92
$$

NEZ044-045-051>053-067-281600-
OMAHA AREA

CITY           SKY/WX    TMP DP  RH WIND       PRES   REMARKS
OMAHA EPPLEY   CLOUDY    73  70  90 E20       29.86F THUNDER
BLAIR          CLOUDY    71  68  90 E8G17     29.86F
FREMONT        CLOUDY    74  71  89 E16G22    29.85F
$$



USA.gov is the U.S. government's official web portal to all federal, state and local government web resources and services.